Regional Weather Roundup
Issued by NWS

Home | Current Version | Previous Version | Text Only | Print | Product List | Glossary Off
Versions: 1 2 3 4 5 6 7 8 9 10 11 12 13 14 15 16 17 18 19 20 21 22 23 24 25 26 27 28 29 30 31 32 33 34 35 36 37 38 39 40 41 42 43 44 45 46 47 48 49 50

000
ASUS45 KPSR 010310
RWRAZ

ARIZONA REGIONAL HOURLY WEATHER ROUNDUP
NATIONAL WEATHER SERVICE PHOENIX AZ
800 PM MST SAT JAN 31 2015

NOTE: FAIR INDICATES FEW OR NO CLOUDS BELOW 12,000 FEET WITH NO
SIGNIFICANT WEATHER AND/OR OBSTRUCTIONS TO VISIBILITY.

AZZ001>003-036-010400-
NORTHWEST ARIZONA

CITY           SKY/WX    TMP DP  RH WIND       PRES   REMARKS
BULLHEAD CITY  CLEAR     64  41  42 N16       29.93R
KINGMAN        CLEAR     46  41  82 E7        29.98R
$$

AZZ004>008-015-016-018-010400-
NORTH CENTRAL ARIZONA

CITY           SKY/WX    TMP DP  RH WIND       PRES   REMARKS
GRAND CANYON   CLEAR     32  30  92 NE3       30.01R
PRESCOTT       LGT RAIN  46  42  86 CALM      29.98R
FLAGSTAFF      PTCLDY    34  31  88 CALM      30.00S
PAYSON         PTCLDY    43  41  93 CALM      29.98S
$$

AZZ009>014-017-010400-
NORTHEAST ARIZONA

CITY           SKY/WX    TMP DP  RH WIND       PRES   REMARKS
WINSLOW        MOCLDY    41  38  89 W8        29.98R
SAINT JOHNS    CLOUDY    43  39  86 W9        29.96R
WINDOW ROCK    CLOUDY    37  32  82 NE6       29.96R WCI  32
SHOW LOW       CLOUDY    37  34  87 N3        30.01R
$$

AZZ023-010400-
GREATER PHOENIX AREA

CITY           SKY/WX    TMP DP  RH WIND       PRES   REMARKS
PHOENIX        MOCLDY    57  53  86 CALM      29.91R
BUCKEYE          N/A     55  55 100 E5        29.92S
GLENDALE       MOCLDY    57  57 100 SE3       29.93R
LUKE AFB       MOCLDY    58  54  88 CALM      29.90S
DEER VALLEY    PTCLDY    56  52  86 CALM      29.91R
SCOTTSDALE     MOCLDY    57  52  83 CALM      29.93R
MESA-FALCON    MOCLDY    54  54 100 CALM      29.92R
MESA-GATEWAY   PTCLDY    54  52  94 CALM      29.93R
CHANDLER       MOCLDY    55  54  94 CALM      29.92R
$$

AZZ027-028-010400-
SOUTHWEST MARICOPA COUNTY AND PINAL COUNTY

CITY           SKY/WX    TMP DP  RH WIND       PRES   REMARKS
CASA GRANDE    MOCLDY    54  50  87 CALM      29.92R
GILA BEND      FAIR      56  56  99 CALM      29.91R
$$

AZZ503-504-507>509-010400-
SOUTHEAST ARIZONA

CITY           SKY/WX    TMP DP  RH WIND       PRES   REMARKS
TUCSON         CLOUDY    52  50  93 CALM      29.93R
DAVIS-MONTHAN  MOCLDY    52  51  99 NE1       29.91R
NOGALES        LGT RAIN  48  44  86 E3        29.92R
SIERRA VISTA   MOCLDY    45  44  97 NE8       29.95R
DOUGLAS        LGT RAIN  46  42  86 NE10      29.93S
SAFFORD        CLOUDY    50  46  86 NW6       29.92R
$$

AZZ020-021-025-026-031-010400-
SOUTHWEST ARIZONA

CITY           SKY/WX    TMP DP  RH WIND       PRES   REMARKS
YUMA           CLOUDY    66  49  54 N5        29.91R
$$

CAZ031-033-041-043-047-048-061-010400-
SOUTHERN CALIFORNIA

CITY           SKY/WX    TMP DP  RH WIND       PRES   REMARKS
DOWNTOWN L.A.  CLEAR     61  54  77 CALM      29.93R
L.A. AIRPORT   PTCLDY    60  55  83 W8        29.94R
SAN DIEGO      MOCLDY    62  53  72 N7        29.96R
BURBANK        CLEAR     63  50  62 SE7       29.93R
ONTARIO        PTCLDY    61  51  70 NW7       29.94R
RIVERSIDE      CLEAR     65  39  38 VRB5      29.94R
PALM SPRINGS   CLEAR     67  42  40 CALM      29.95R
EL CENTRO NAS  CLOUDY    65  48  54 NW8       29.92R
IMPERIAL       CLOUDY    65  50  58 NW6       29.91R
BLYTHE         CLEAR     59  52  77 NW5       29.91R
NEEDLES        CLEAR     63  42  46 N10       29.92
$$

NVZ020-UTZ003-010400-
SOUTHERN NEVADA-UTAH

CITY           SKY/WX    TMP DP  RH WIND       PRES   REMARKS
LAS VEGAS      PTCLDY    58  40  51 CALM      29.95R
SALT LAKE CITY CLEAR     38  29  70 W6        30.12R WCI  33
$$

NMZ009-TXZ055-010400-
NEW MEXICO-WEST TEXAS

CITY           SKY/WX    TMP DP  RH WIND       PRES   REMARKS
ALBUQUERQUE    PTCLDY    38  34  85 CALM      29.93R
EL PASO        MOCLDY    53  41  63 W8        29.90R
$$


........................KEY........................
SKY/WX - SKY CONDITION/WEATHER
TMP    - TEMPERATURE IN FAHRENHEIT
DP     - DEW POINT IN FAHRENHEIT
RH     - RELATIVE HUMIDITY IN PERCENT
WIND   - DIRECTION AND SPEED IN MILES PER HOUR (MPH)
VRB    - VARIABLE WIND DIRECTION
PRES   - MEAN SEA LEVEL PRESSURE IN INCHES OF MERCURY
         F - FALLING PRESSURE   R - RISING PRESSURE
         S - STEADY PRESSURE
VSB    - VISIBILITY IN MILES
HX     - HEAT INDEX IN FAHRENHEIT
WCI    - WIND CHILL INDEX IN FAHRENHEIT
TC     - TEMPERATURE IN CELSIUS WHICH IS ALSO KNOWN AS
         TEMPERATURE IN CENTIGRADE
AFB    - AIR FORCE BASE
         LUKE AFB IS LUKE AIR FORCE BASE
         DAVIS-MONTHAN IS DAVIS-MONTHAN AIR FORCE BASE
NAS    - NAVAL AIR STATION
         EL CENTRO NAS IS EL CENTRO NAVAL AIR STATION
N/A    - NOT AVAILABLE


USA.gov is the U.S. government's official web portal to all federal, state and local government web resources and services.